Preview of NWS' New Version of Forecast
This preview is not operational and should not be used for support decisions.

Regional Weather Roundup (RWR)

Issued by National Weather Service (NWS)

                            
000
ASUS43 KLSX 230407
RWRMO 

WEATHER SUMMARY FOR MISSOURI
NATIONAL WEATHER SERVICE SPRINGFIELD MO
1100 PM CDT MON JUL 22 2019

NOTE: "FAIR" INDICATES FEW OR NO CLOUDS BELOW 12,000 FEET WITH NO
       SIGNIFICANT WEATHER AND/OR OBSTRUCTIONS TO VISIBILITY.
       CURRENT SKY AND/OR WEATHER CONDITIONS ARE NOT AVAILABLE FOR
       CHILLICOTHE AND FARMINGTON.

MOZ001>031-035>038-043-044-053-054-230500-
...NORTHERN AND WESTERN MISSOURI...
  
CITY           SKY/WX    TMP DP  RH WIND       PRES   REMARKS
KANSAS CTY INT PTCLDY    65  58  78 N6        30.20R                  
KANSAS C DTWN  CLEAR     73  54  51 N9        30.19R                  
LEE'S SUMMIT   CLEAR     70  55  59 N9        30.20R                  
ST JOSEPH      CLEAR     64  59  83 N7        30.21R                  
CHILLICOTHE      N/A     69  58  67 VRB3      30.19S                  
KIRKSVILLE     CLEAR     68  60  75 N8        30.18R                  
     
$$
MOZ066>068-077>081-088>096-101>105-230500-
...SOUTHWEST MISSOURI...
  
CITY           SKY/WX    TMP DP  RH WIND       PRES   REMARKS
SPRINGFIELD    CLEAR     66  61  84 N6        30.13R                  
JOPLIN         CLEAR     67  63  87 N6        30.15R                  
BRANSON        CLEAR     66  63  88 CALM      30.13S                  
               
$$
MOZ032>034-039>042-045>050-055>058-069>072-230500-
...CENTRAL MISSOURI...  
  
CITY           SKY/WX    TMP DP  RH WIND       PRES   REMARKS
COLUMBIA       CLEAR     70  62  76 N9        30.14R                  
ROLLA          PTCLDY    69  63  81 N7        30.12S                  
SEDALIA        CLEAR     65  65 100 N7        30.16S                  
WHITEMAN AFB   CLEAR     67  61  80 N7        30.12R                  
WARRENSBURG    CLEAR     68  59  73 N6        30.16S                  
OSAGE BEACH    CLEAR     69  63  81 N3        30.13S                  
               
$$
MOZ051-052-059>065-230500-
...EAST CENTRAL MISSOURI...
  
CITY           SKY/WX    TMP DP  RH WIND       PRES   REMARKS
ST LOUIS INTL  PTCLDY    74  62  66 N8        30.10R                  
SPIRIT OF STL  CLEAR     74  63  68 NE7       30.09R                  
ST CHARLES       N/A    N/A N/A N/A MISG      30.09R                  
                   
$$
MOZ072>076-082>087-097>100-106>115-230500-
...SOUTH CENTRAL AND SOUTHEAST MISSOURI...
  
CITY           SKY/WX    TMP DP  RH WIND       PRES   REMARKS
CAPE GIRARDEAU FAIR      71  64  78 NE5       30.04R                  
FARMINGTON     PTCLDY    71  66  84 N6        30.10R                  
POPLAR BLUFF   FAIR      69  66  90 N7        30.04R                  
WEST PLAINS    CLEAR     69  64  84 N3        30.11R                  
                                       
$$